Regional Weather Roundup
Issued by NWS

Home | Current Version | Previous Version | Text Only | Print | Product List | Glossary Off
Versions: 1 2 3 4 5 6 7 8 9 10 11 12 13 14 15 16 17 18 19 20 21 22 23 24 25 26 27 28 29 30 31 32 33 34 35 36 37 38 39 40 41 42 43 44 45 46 47 48 49 50

250
ASUS43 KIND 141909
RWRIN

WEATHER ROUNDUP FOR INDIANA
NATIONAL WEATHER SERVICE INDIANAPOLIS IN
200 PM EST THU DEC 14 2017

NOTE: "FAIR" INDICATES FEW OR NO CLOUDS BELOW 12,000 FEET WITH NO
SIGNIFICANT WEATHER AND/OR OBSTRUCTIONS TO VISIBILITY.

* - STATION DOES NOT REPORT WEATHER SUCH AS PRECIPITATION OR FOG.

+ - STATION NOT QUALITY CONTROLLED BY THE NATIONAL WEATHER SERVICE.
    USE DATA WITH CAUTION...ESPECIALLY DEWPOINT AND RELATIVE
    HUMIDITY OBSERVATIONS.

INZ001>003-010>013-019-020-142000-
NORTHWEST INDIANA

CITY           SKY/WX    TMP DP  RH WIND       PRES   REMARKS
GARY /AIRPORT/ PTSUNNY   28  18  64 W8        30.05F WCI  20
KNOX *+        CLOUDY    25  14  63 SE5       30.05F WCI  19
LA PORTE +     FLURRIES  21  15  77 S3        30.05F
MICHIGAN CITY+ CLOUDY    23  16  74 SE5       30.05F WCI  17
MONTICELLO +   MOSUNNY   27  11  52 CALM      30.05F
RENSSELAER +   CLOUDY    28  16  59 CALM      30.05F
VALPARAISO     MOSUNNY   26  19  74 SE6       30.04F WCI  19

$$

LMZ046-743>745-142000-
SOUTHERN LAKE MICHIGAN

STATION/POSITION TIME  TEMP    WIND        PRES    WAVE
                       AIR SEA DIR/SP/G            HT
                 (UTC) (F)     (DEG/KT/KT) (MB)    (FT)
BURNS HARBOR     1900   28     250/ 11/ 14 1017.6
MICHIGAN CITY    1840   22     160/  9/ 11   N/A

$$

INZ004-005-014>016-021>024-142000-
NORTH CENTRAL INDIANA

CITY           SKY/WX    TMP DP  RH WIND       PRES   REMARKS
ELKHART        MOSUNNY   21  10  63 CALM      30.04F
GOSHEN         PTSUNNY   22   8  55 CALM      30.04S
LOGANSPORT +   PTSUNNY   27  14  59 CALM      30.06S
PERU/GRISSOM   CLOUDY    26  13  56 CALM      30.03F
ROCHESTER +    CLOUDY    27  10  50 CALM      30.05F
SOUTH BEND     PTSUNNY   21  13  71 S5        30.05F WCI  15
WARSAW +       CLOUDY    23   9  54 CALM      30.04S

$$

INZ006>009-017-018-025>027-142000-
NORTHEAST INDIANA

CITY           SKY/WX    TMP DP  RH WIND       PRES   REMARKS
AUBURN +       CLOUDY    25   5  42 CALM      30.04R
FORT WAYNE     PTSUNNY   23   9  55 CALM      30.04F
HUNTINGTON +   MOSUNNY   24   7  48 E3        30.03S
KENDALLVILLE + MOSUNNY   21   8  56 CALM      30.03R

$$

INZ028-029-035-036-043>045-051>053-142000-
WEST CENTRAL INDIANA

CITY           SKY/WX    TMP DP  RH WIND       PRES   REMARKS
CRAWFORDSVL +  CLOUDY    28  12  51 NE6       30.04F WCI  22
GREENCASTLE +  PTSUNNY   32  10  40 NE7       30.04S WCI  26
LAFAYETTE      PTSUNNY   29  13  51 VRB5      30.04F WCI  24
TERRE HAUTE    CLOUDY    33  15  47 NE7       30.05F WCI  27

$$

INZ030>032-037>040-046>048-054>057-064-065-142000-
CENTRAL INDIANA

CITY           SKY/WX    TMP DP  RH WIND       PRES   REMARKS
COLUMBUS       MOSUNNY   27  12  54 N7        30.06S WCI  19
FRANKFORT +    CLOUDY    32  13  46 N3        30.05F
GREENWOOD *+   MOSUNNY   32  17  53 E3        30.05S
INDIANAPOLIS   CLOUDY    29  11  47 E5        30.04F WCI  24
-EAGLE CREEK   CLOUDY    30   7  37 VRB3      30.03S
KOKOMO +       CLOUDY    28  14  55 N5        30.05S WCI  23
MARION +       CLOUDY    26  11  52 E5        30.04F WCI  21
MT COMFORT *+  CLOUDY    28  16  59 NE8       30.04S WCI  20
SHELBYVILLE    CLOUDY    29  14  53 NE7       30.04F WCI  22
ZIONSVILLE +   PTSUNNY   29  12  50 E5        30.03F WCI  23

$$

INZ033-034-041-042-049-050-058-059-142000-
EAST CENTRAL INDIANA

CITY           SKY/WX    TMP DP  RH WIND       PRES   REMARKS
MUNCIE         CLOUDY    30  12  47 NE10      30.03S WCI  21
RICHMOND +     CLOUDY    23  16  74 N3        30.02S

$$

INZ060-061-067>069-081>083-085>088-142000-
SOUTHWEST INDIANA

CITY           SKY/WX    TMP DP  RH WIND       PRES   REMARKS
EVANSVILLE     CLOUDY    34  22  61 N6        30.06F WCI  29
HUNTINGBURG +  CLOUDY    33  22  63 N8        30.04F WCI  26
WASHINGTON +   CLOUDY    32  20  60 N7        30.04F WCI  26

$$

INZ062-063-066-070>080-084-089>092-142000-
SOUTH CENTRAL AND SOUTHEAST INDIANA

CITY           SKY/WX    TMP DP  RH WIND       PRES   REMARKS
BEDFORD +      CLOUDY    32  16  51 NW6       30.03S WCI  26
BLOOMINGTON    CLOUDY    33  13  43 N8        30.03S WCI  26
MADISON *+     CLOUDY    34  16  47 N7        30.04S WCI  28
NORTH VERNON + CLOUDY    28  16  59 NW8       30.04F WCI  20
SEYMOUR +      PTSUNNY   32  16  51 N7G17     30.05S WCI  26

$$





USA.gov is the U.S. government's official web portal to all federal, state and local government web resources and services.